shi-jia-zhuang , China , ASIA

  • Sunday
    January 21

    Overcast  Overcast

    34 °F  27 °F

    North  North

        

  • Monday
    January 22

    Light snow  Overcast

    30 °F  18 °F

    Northeast  North

    3~4L    

  • Tuesday
    January 23

    Sunny  Sunny

    30 °F  16 °F

    North  North

    3~4L    

  • Wednesday
    January 24

    Sunny  Cloudy

    28 °F  18 °F

    Northeast  North

        

  • Thursday
    January 25

    Cloudy  Cloudy

    30 °F  18 °F

    East  North

        

  • Friday
    January 26

    Cloudy  Cloudy

    30 °F  18 °F

    Northeast  North

        

  • Saturday
    January 27

    Cloudy  Cloudy

    30 °F  19 °F

    North  North

        

Date   Weather Temperature Humidity Total_rain Visibility Wind
11:00 Overcast 31°F 79.7% 0mm 0.8km Northeast  1.2m/s
14:00 Overcast 33°F 80.7% 0mm 0.8km Northeast  2.4m/s
17:00 Overcast 32°F 81.7% 0mm 4km Northeast  1.9m/s
20:00 Overcast 31°F 82.7% 0mm 0.8km Northeast  0.8m/s
23:00 Overcast 31°F 83.8% 0mm 4km Northeast  1.0m/s
02:00 Overcast 31°F 86.7% 0mm 0.8km Northwest  1.1m/s
05:00 Overcast 27°F 88.6% 0mm 4km Northwest  1.0m/s
08:00 Overcast 27°F 85.9% 0mm 0.4km Northeast  0.1m/s
11:00 Light snow 27°F 69.1% 0.2mm 0.8km Northeast  1.8m/s
14:00 Sleet 30°F 80.4% 0.2mm 4km Northeast  2.2m/s
17:00 Sleet 29°F 75.6% 0.1mm 8km Northeast  2.5m/s
20:00 Light snow 28°F 76.9% 0.1mm 4km Northeast  1.2m/s
23:00 Overcast 27°F 78.7% 0mm 4km Northeast  2.0m/s
02:00 Overcast 22°F 83.1% 0mm 4km Northwest  1.4m/s
05:00 Overcast 18°F 84.2% 0mm 4km Northeast  1.1m/s
08:00 Overcast 18°F 82.5% 0mm 4km Northeast  1.0m/s
11:00 Sunny 27°F 52.9% 0mm 12km Northeast  1.8m/s
14:00 Sunny 30°F 62.8% 0mm 4km Northeast  2.0m/s
17:00 Sunny 29°F 61.8% 0mm 0.8km Northeast  1.9m/s
20:00 Sunny 27°F 71.1% 0mm 12km Southeast  1.7m/s
23:00 Sunny 25°F 74% 0mm 0.8km Southwest  1.0m/s
02:00 Sunny 18°F 74% 0mm 8km Northwest  0.8m/s
05:00 Sunny 18°F 78% 0mm 4km Northwest  0.9m/s
08:00 Sunny 16°F 83.3% 0mm 4km Northwest  1.1m/s
11:00 Sunny 24°F 51.8% 0mm 4km Northeast  1.2m/s
14:00 Sunny 28°F 59.5% 0mm 8km Northeast  0.9m/s
17:00 Sunny 25°F 71.7% 0mm 8km Northeast  1.5m/s
20:00 Sunny 24°F 85.9% 0mm 0.8km Northeast  0.8m/s
23:00 Cloudy 22°F 89.3% 0mm 8km Northeast  1.1m/s
02:00 Cloudy 21°F 89.2% 0mm 0.8km Northeast  0.4m/s
05:00 Cloudy 20°F 89.1% 0mm 4km Northeast  0.5m/s
08:00 Cloudy 18°F 56.6% 0mm 0.4km Northeast  0.1m/s
11:00 Cloudy 25°F 66% 0mm 0.8km Northeast  1.4m/s
14:00 Cloudy 28°F 71.3% 0mm 4km Northeast  1.7m/s
17:00 Cloudy 30°F 76.8% 0mm 4km Northeast  1.1m/s
20:00 Cloudy 26°F 70.6% 0mm 0.8km Northeast  0.6m/s
23:00 Cloudy 25°F 64.9% 0mm 12km Northeast  0.8m/s
02:00 Cloudy 22°F 80.1% 0mm 4km Northwest  0.8m/s
05:00 Cloudy 18°F 67.1% 0mm 8km Northeast  0.4m/s
08:00 Cloudy 19°F 61.2% 0mm 4km Northwest  0.6m/s
11:00 Cloudy 24°F 61.6% 0mm 8km Southeast  1.1m/s
14:00 Cloudy 30°F 62.1% 0mm 4km Northeast  1.8m/s
17:00 Cloudy 29°F 62.7% 0mm 4km Northeast  1.3m/s
20:00 Cloudy 23°F 65.2% 0mm 0.4km Northeast  0.9m/s
23:00 Cloudy 20°F 67.2% 0mm 8km Northwest  0.9m/s
02:00 Cloudy 18°F 81% 0mm 4km Northwest  1.2m/s
05:00 Cloudy 18°F 69.3% 0mm 4km Northeast  0.4m/s
08:00 Cloudy 22°F 59.8% 0mm 4km Northeast  0.5m/s
11:00 Cloudy 26°F 57.5% 0mm 0.8km Northeast  1.4m/s
14:00 Cloudy 29°F 72.1% 0mm 4km Northeast  1.8m/s
17:00 Cloudy 29°F 71.1% 0mm 4km Northeast  1.3m/s
20:00 Cloudy 30°F 75.9% 0mm 4km Northeast  0.7m/s
23:00 Cloudy 26°F 80.7% 0mm 4km Northwest  0.6m/s
02:00 Cloudy 21°F 82.9% 0mm 4km Northwest  1.2m/s
05:00 Cloudy 20°F 80.2% 0mm 4km Northeast  0.4m/s